ATLAS AGENA B DEB, 3121

Orbit data source: Space-Track

ATLAS AGENA B DEB, 3121 is space debris in LEO originally from a launch on Fri, 19 Jul 1963 UTC via an ATLAS AGENA B launch vehicle from the Air Force Western Test Range (AFWTR). Debris objects in space refer to the collection of defunct objects orbiting the Earth. Examples of debris include non-operational satellites, rocket bodies, and fragments generated from explosions, collisions, or faulty payload assembly.

Loading next visibility...
Identifier
3121, 1963-030F
Orbit
LEO
Country
Flag of USUS
Related business
Manufacturer
MIT-LL
Mission
Spacecraft
Bus & Motor
Unknown
Mass
8 kg wet, 8 kg dry
Launch date (UTC)
1963-07-19 (62 years ago)
Launch vehicle
ATLAS AGENA B
Launch site
Air Force Western Test Range (AFWTR)
Object type
Payload
Rocket body
Debris
Shape & HBR
Unknown shape, 1.1 m
Radar Cross Section
Medium (>0.1 m² and <1 m²)

Expand to show TLE details & history
Last TLE update: 4 weeks ago

TLE from 4 weeks ago
0 ATLAS AGENA B DEB
1  3121U 63030F   25265.77665337 -.00000023  00000-0 -12932-1 0  9998
2  3121  88.4265 223.3936 0032008 335.5634  24.3698  8.57967986183832
Epoch: 2025-09-22T18:38Z
TLE epoch observation values (Epoch: 2025-09-22T18:38:22.851Z)
Latitude
-0.00004°
Longitude
-58.07759°
Altitude
3,673.756 km
Speed
6.307 km/s
True Right ascension
14h 53m 34s
True Declination
0° 00' 00"
Sunlit
Object was in daylight at epoch
Visualization orbit readout
Latitude
Unknown
Longitude
Unknown
Altitude
Unknown
Speed
Unknown
Apparent Right ascension
Unknown
Apparent Declination
Unknown
Sunlit
N/A
Visualization observer readout
Local Sidereal Time
13:40:55
Azimuth
Unknown
Elevation
Unknown
Doppler factor
Unknown
Orbital elements
Apogee altitude
3,731.029 km
Perigee altitude
3,666.521 km
Semi-major axis
10,076.912 km
Eccentricity
0.0032
Inclination
88.4265°
RAAN
223.3936°
Arg. of periapsis
335.5634°
True anomaly
24.5217°
Mean anomaly
24.3698°
Eccentric anomaly
24.44569°
Mean motion
2.14562 °/min
Orbital period
167.78 mins
BSTAR
-0.012932
Loading maneuver chart data...
Computing Atmospheric mass density...
Loading historical data...
Loading historical data...
Loading historical data...
Loading historical data...
Loading historical data...
Loading historical data...
Loading historical data...

Documentation

Showing up to 5 results
|